Tracking 21473 objects as of 27-Sep-2020
HD Live streaming from Space Station
objects crossing your sky now

OBJECT D

Track OBJECT D now!
10-day predictions


NORAD ID: 43665
Int'l Code: 2018-083D
Perigee: 510.5 km
Apogee: 529.9 km
Inclination: 97.5 °
Period: 94.9 minutes
Semi major axis: 6891 km
RCS: Unknown
Launch date: October 29, 2018
Source: People's Republic of China (PRC)
Launch site: Jiuquan Satellite Launch Center, China (JSC)
aabbcc
Your satellite tracking list
Your tracking list is empty




NASA's NSSDC Master Catalog

Two Line Element Set (TLE):
1 43665U 18083D   20271.53013200  .00000834  00000-0  44763-4 0  9993
2 43665  97.4696 294.8529 0014047  10.2114 144.1185 15.17606216106063
Source of the keplerian elements: AFSPC